Spirit of St Louis, MO

10:09 PM CDT on April 24, 2017 (GMT -0500)
Spirit Of Saint Louis

Weather History for KSUS - January, 2012

Change the Weather History Date:

Friday, January 20, 2012

  Actual Average Record
Temperature  
Mean Temperature 22 °F -  
Max Temperature 28 °F 37 °F 55 °F (2017)
Min Temperature 16 °F 18 °F 8 °F (2016)
Degree Days  
Heating Degree Days 43    
Moisture  
Dew Point 16 °F    
Average Humidity 74    
Maximum Humidity 93    
Minimum Humidity 63    
Precipitation  
Precipitation 0.00 in - - ()
Sea Level Pressure  
Sea Level Pressure 30.02 in    
Wind  
Wind Speed 9 mph (NE)    
Max Wind Speed 12 mph    
Max Gust Speed -    
Visibility 9 miles    
Events      
Averages and records for this station are not official NWS values.
T = Trace of Precipitation, MM = Missing Value Source: NWS Daily Summary

Daily Weather History Graph

Daily Weather History Graph

Search for Another Location

Airport or City:

Trip Planner

Search our weather history database for the weather conditions in past years. The results will help you decide how hot, cold, wet, or windy it might be!

Date:

Astronomy

Jan. 20, 2012 Rise Set
Actual Time 7:17 AM CST 5:10 PM CST
Civil Twilight 6:48 AM CST 5:39 PM CST
Nautical Twilight 6:15 AM CST 6:11 PM CST
Astronomical Twilight 5:44 AM CST 6:43 PM CST
Moon 4:53 AM CST (1/20) 2:42 PM CST (1/20)
Length of Visible Light 10h 50m
Length of Day
9h 53m
Waning Crescent, 8% of the Moon is Illuminated
Jan 20
Waning Crescent
Jan 23
New
Jan 30
First Quarter
Feb 7
Full
Feb 14
Last Quarter

Hourly Weather History & Observations

Time (CST) Temp. Windchill Dew Point Humidity Pressure Visibility Wind Dir Wind Speed Gust Speed Precip Events Conditions
12:54 AM 17.1 °F 6.6 °F 9.0 °F 71% 30.18 in 10.0 mi NE 8.1 mph - N/A   Clear
1:54 AM 17.1 °F 5.0 °F 9.0 °F 71% 30.16 in 10.0 mi ENE 10.4 mph - N/A   Clear
2:54 AM 17.1 °F 5.8 °F 9.0 °F 71% 30.15 in 10.0 mi NE 9.2 mph - N/A   Clear
3:54 AM 16.0 °F 2.9 °F 7.0 °F 68% 30.15 in 10.0 mi ENE 11.5 mph - N/A   Clear
4:54 AM 16.0 °F 2.9 °F 7.0 °F 68% 30.14 in 10.0 mi ENE 11.5 mph - N/A   Scattered Clouds
5:54 AM 17.1 °F 4.3 °F 8.1 °F 68% 30.10 in 10.0 mi East 11.5 mph - N/A   Partly Cloudy
6:31 AM 17.6 °F 6.4 °F 8.6 °F 68% 30.05 in 10.0 mi East 9.2 mph - N/A   Mostly Cloudy
6:46 AM 17.6 °F 7.3 °F 8.6 °F 68% 30.05 in 10.0 mi East 8.1 mph - N/A   Overcast
6:54 AM 18.0 °F 6.9 °F 9.0 °F 68% 30.08 in 10.0 mi East 9.2 mph - N/A   Overcast
7:54 AM 19.0 °F 6.8 °F 9.0 °F 65% 30.07 in 10.0 mi ENE 11.5 mph - N/A   Overcast
8:49 AM 21.2 °F 10.9 °F 10.4 °F 63% 30.02 in 10.0 mi East 9.2 mph - N/A   Overcast
8:54 AM 21.0 °F 12.4 °F 10.0 °F 63% 30.06 in 10.0 mi ENE 6.9 mph - N/A   Overcast
9:54 AM 23.0 °F 15.8 °F 12.0 °F 63% 30.08 in 10.0 mi East 5.8 mph - N/A   Overcast
10:54 AM 25.0 °F 15.5 °F 15.1 °F 66% 30.05 in 10.0 mi East 9.2 mph - N/A   Overcast
11:54 AM 26.6 °F 18.2 °F 15.8 °F 64% 29.96 in 10.0 mi East 8.1 mph - N/A   Overcast
12:54 PM 28.0 °F 19.3 °F 17.1 °F 63% 29.94 in 10.0 mi East 9.2 mph - N/A   Overcast
1:54 PM 28.9 °F 20.4 °F 18.0 °F 64% 29.89 in 10.0 mi East 9.2 mph - N/A   Overcast
2:54 PM 28.9 °F 19.2 °F 19.0 °F 67% 29.89 in 10.0 mi ENE 11.5 mph - N/A   Overcast
3:54 PM 28.0 °F 20.0 °F 19.9 °F 72% 29.90 in 10.0 mi NE 8.1 mph - N/A   Overcast
4:54 PM 28.0 °F 21.7 °F 21.9 °F 78% 29.91 in 6.0 mi East 5.8 mph - 0.00 in   Overcast
5:54 PM 28.0 °F 20.8 °F 23.0 °F 81% 29.94 in 8.0 mi NE 6.9 mph - N/A   Overcast
6:21 PM 26.6 °F 21.2 °F 24.8 °F 93% 29.92 in 4.0 mi NNE 4.6 mph - N/A   Overcast
6:33 PM 26.6 °F 19.1 °F 24.8 °F 93% 29.93 in 3.0 mi North 6.9 mph - N/A   Overcast
6:54 PM 27.0 °F 19.5 °F 24.1 °F 89% 29.97 in 5.0 mi North 6.9 mph - N/A   Overcast
7:54 PM 26.1 °F 17.6 °F 24.1 °F 92% 29.98 in 3.0 mi North 8.1 mph - N/A   Overcast
8:54 PM 26.1 °F 19.4 °F 23.0 °F 88% 30.01 in 8.0 mi NNW 5.8 mph - N/A   Overcast
9:54 PM 26.1 °F 17.6 °F 23.0 °F 88% 30.04 in 8.0 mi NNW 8.1 mph - N/A   Overcast
10:54 PM 24.8 °F 14.0 °F 21.2 °F 86% 30.03 in 8.0 mi NNW 11.5 mph - N/A   Overcast
11:54 PM 24.1 °F 15.2 °F 19.9 °F 84% 30.06 in 9.0 mi North 8.1 mph - N/A   Overcast